Theta_e
309 309 309 309 310 310 309 308 307 307 307 304 302 303 294 295 293 303 307 310 307 300 295 301 303 295 296 302 300 301 299 299 300 298 300 297 299 298 298 299 299 300 300 301 299 300 298 299 297 299 300 301 303 305 305 307 306 306 302 304 303 318 298 295 297 298 299 303 304 304 303 302 300 300 300 299 296 297 295 292 292 294 292 294 292 291 290
309 309 310 310 310 309 309 308 308 307 307 305 304 299 296 296 296 300 308 311 307 298 292 294 296 300 302 302 302 304 301 300 299 298 299 297 297 296 297 300 302 300 304 302 300 305 296 300 300 299 302 300 304 306 305 307 305 304 300 301 307 298 296 296 291 291 293 298 299 299 300 301 297 296 298 300 300 301 298 297 295 295 293 294 292 287 291
310 310 310 310 309 309 308 308 308 308 308 308 304 297 298 296 299 298 302 312 305 295 296 296 294 300 300 300 299 301 302 303 303 302 300 302 300 299 297 300 302 301 304 302 303 303 300 297 302 302 307 308 309 304 305 307 305 308 308 323 308 301 296 297 290 288 287 287 288 290 293 295 295 297 298 300 300 299 298 296 296 291 293 296 292 290 294
310 310 310 310 310 309 308 308 308 308 308 308 304 300 298 297 290 298 298 299 300 301 303 296 294 295 294 296 298 300 299 303 304 303 301 303 302 301 301 301 302 301 302 300 300 300 303 300 301 303 305 307 310 311 308 305 305 318 330 321 308 299 299 299 296 295 292 293 292 296 300 296 296 297 299 299 300 301 300 296 292 293 289 295 292 299 299
310 310 310 310 309 308 308 308 308 308 307 308 303 300 297 297 294 294 288 296 295 295 297 295 296 293 297 291 299 299 300 302 304 308 301 302 301 301 300 300 298 299 299 299 300 302 303 306 305 307 306 309 309 312 312 311 317 328 319 322 302 298 297 297 298 298 299 299 298 300 301 298 298 298 298 299 299 299 300 297 295 295 295 290 292 296 302
311 310 310 310 309 308 308 308 308 307 307 307 305 298 299 292 299 297 298 290 286 290 291 296 295 297 298 296 301 299 299 300 299 303 306 306 305 299 300 300 300 301 301 303 299 304 306 306 302 308 310 309 308 308 309 310 317 318 312 315 303 298 294 297 298 298 299 301 300 301 301 299 299 299 299 299 299 298 299 299 299 299 298 295 296 298 303
311 311 310 310 309 309 308 308 308 307 306 306 299 294 298 301 299 299 302 293 293 294 296 298 298 297 298 297 302 298 299 297 299 299 301 305 301 301 296 299 303 303 302 303 301 303 299 300 309 309 307 309 306 303 305 309 308 309 305 308 305 300 294 296 299 298 298 299 300 301 300 300 300 299 299 299 299 298 300 300 299 301 299 301 301 302 304
311 310 310 310 310 309 309 308 308 307 306 304 299 297 294 293 293 294 299 298 296 297 296 297 297 294 300 298 300 299 298 295 297 299 301 301 303 308 305 304 306 306 306 305 302 305 304 303 302 311 310 305 306 304 304 304 307 307 306 307 307 302 295 305 297 296 297 298 300 300 299 299 298 300 300 299 297 298 299 299 301 305 301 301 302 303 303
310 310 310 310 309 309 309 309 308 307 307 299 297 296 298 297 299 299 294 292 293 297 296 294 293 292 296 296 299 299 298 296 299 298 302 300 302 306 304 306 306 306 307 309 309 312 312 311 309 311 310 303 309 306 304 307 304 305 304 308 306 305 297 301 297 293 294 298 299 299 299 298 298 299 299 298 296 296 297 298 302 302 300 300 301 301 302
310 310 310 309 309 309 309 308 308 307 306 300 299 294 301 300 302 302 297 291 299 291 294 293 293 291 297 298 298 297 297 300 300 296 305 309 308 308 307 307 307 304 305 305 308 308 309 309 309 309 310 310 310 309 309 308 306 304 305 306 306 300 299 297 294 291 292 297 299 299 298 299 296 297 297 298 299 300 302 305 306 304 303 300 298 300 307
310 310 309 310 309 309 310 309 309 308 305 300 297 296 299 296 295 297 298 290 291 292 291 291 292 297 296 297 295 298 298 299 299 295 297 304 306 307 306 304 303 301 303 306 308 308 310 312 312 311 309 309 310 310 309 309 308 307 306 305 305 304 301 297 295 292 291 296 298 298 295 291 291 300 302 303 303 304 303 304 306 307 307 301 304 305 309
310 310 309 309 309 309 310 310 309 307 306 304 304 299 300 301 300 299 295 289 289 293 291 289 290 294 294 295 296 295 296 297 297 300 297 300 304 306 306 304 302 297 306 308 308 308 309 311 312 313 310 308 309 310 310 307 307 315 307 306 303 303 303 298 297 294 292 295 296 294 290 291 304 309 310 309 308 309 307 308 308 308 309 309 308 308 310
309 309 309 309 309 309 309 309 309 309 308 305 305 298 302 304 299 297 296 293 289 291 289 290 295 295 295 296 294 295 298 299 299 301 301 301 303 305 306 304 302 303 308 305 306 305 306 307 307 307 307 307 306 307 307 306 307 307 307 307 306 301 301 299 297 295 293 292 292 289 290 301 308 309 310 315 310 309 308 306 307 309 308 309 307 309 310
309 309 309 309 310 309 309 309 309 310 308 306 303 302 303 303 297 297 296 293 292 294 293 293 293 293 294 294 294 296 297 296 297 299 300 305 303 304 305 308 306 307 306 306 303 305 300 300 299 302 303 301 300 302 305 307 307 306 306 307 308 305 304 297 297 297 292 290 289 294 302 304 305 306 309 307 306 308 306 299 303 309 309 309 307 307 309
310 309 309 309 309 309 309 309 309 309 310 307 305 304 302 302 301 298 299 297 291 294 295 287 292 294 294 295 296 294 293 294 294 295 300 306 304 306 306 308 307 306 308 305 301 303 299 300 297 296 298 297 292 295 305 303 307 311 310 309 307 305 302 299 295 295 293 290 289 294 292 292 299 307 311 313 310 310 311 307 304 310 311 312 309 308 309
308 308 308 308 309 309 309 309 309 309 309 307 303 303 303 304 303 302 299 296 295 288 291 296 298 296 294 294 296 293 292 292 292 294 298 301 303 304 307 306 306 308 313 308 304 302 301 298 295 295 293 295 300 300 299 304 303 308 310 310 308 307 305 301 298 296 295 290 287 287 289 296 303 306 311 313 313 311 309 306 300 308 311 312 311 310 310
309 308 309 308 309 309 309 309 309 309 309 307 302 303 301 304 303 300 298 298 296 291 297 299 299 298 295 293 293 293 294 291 293 293 294 296 299 302 304 304 307 310 311 305 303 298 295 297 299 297 299 303 301 299 304 302 300 302 307 309 306 305 303 301 298 295 295 290 288 291 295 299 307 309 312 314 315 311 306 295 295 304 312 313 313 310 311
310 308 309 309 309 308 309 309 309 309 308 309 303 300 300 304 304 303 300 297 294 295 299 301 298 294 292 293 292 295 296 294 294 296 299 301 303 299 298 301 302 307 312 306 304 296 297 297 295 295 295 304 306 303 293 303 299 298 301 302 300 301 303 300 295 296 298 298 293 294 299 306 310 311 313 314 313 303 296 291 299 310 312 312 313 311 311
309 309 309 310 309 308 308 308 308 309 309 307 304 302 301 303 305 304 300 298 296 291 298 303 302 298 300 302 298 299 297 295 294 291 290 293 300 302 299 300 306 300 306 303 301 300 297 296 301 299 297 298 304 298 304 298 299 305 303 299 300 301 301 300 297 296 295 293 292 294 296 305 310 313 313 315 306 295 295 304 309 313 313 314 315 314 314
308 308 309 309 310 309 308 308 308 308 308 308 304 299 302 304 305 304 300 296 297 295 298 299 300 297 301 298 294 294 295 295 294 292 291 287 296 298 301 295 302 304 303 304 298 303 299 297 298 303 296 297 301 309 303 304 309 304 301 304 302 302 298 296 297 299 297 294 292 292 291 301 312 312 312 313 301 299 304 312 314 316 314 314 315 315 315
307 308 308 309 309 308 308 308 308 308 308 308 306 301 299 301 303 305 304 301 296 293 295 302 303 301 301 300 301 300 298 294 294 291 292 294 298 297 289 293 299 300 301 300 296 299 299 296 297 299 303 302 304 305 299 299 305 309 308 305 305 309 301 297 299 300 293 290 288 288 299 306 313 311 306 310 312 313 314 313 313 315 316 315 315 316 316
307 307 307 308 309 308 307 307 307 307 307 308 306 301 298 301 303 304 305 304 297 295 297 301 303 302 304 304 304 303 301 300 300 300 295 293 297 296 295 300 305 305 308 307 301 302 302 300 302 299 296 299 302 299 303 299 297 303 310 307 299 307 305 304 297 304 299 296 298 307 310 311 312 313 312 313 315 316 315 314 313 314 315 318 320 320 321
308 308 307 307 308 308 307 308 307 307 307 308 305 301 298 300 300 305 303 298 301 302 303 302 303 304 306 307 309 308 307 306 304 302 301 296 294 297 296 301 300 309 313 310 300 301 301 299 297 302 300 302 300 299 301 302 298 302 300 307 306 314 314 312 310 306 310 310 311 314 312 312 312 314 314 313 314 315 315 314 313 313 314 317 320 323 325
307 307 307 307 308 307 307 307 307 307 307 307 307 300 299 300 301 302 301 301 298 295 298 300 296 293 296 300 303 306 310 309 309 306 306 303 293 292 297 303 306 306 306 308 311 301 303 301 300 303 299 303 306 300 293 296 299 303 303 303 307 311 314 312 306 308 300 298 309 311 311 312 312 313 314 315 316 315 314 313 312 313 314 315 319 323 325
307 307 307 307 307 307 307 307 307 307 307 307 307 306 304 299 300 302 297 292 294 294 289 293 295 299 302 304 306 304 305 310 311 310 306 305 302 296 294 304 307 302 301 305 309 306 305 303 304 302 296 305 306 293 306 300 300 307 300 302 304 307 314 308 307 305 301 304 310 313 317 314 315 313 312 312 313 315 315 315 315 315 316 316 316 317 320
307 307 307 306 307 307 307 308 307 306 307 307 307 299 298 299 300 301 301 299 298 297 291 290 295 303 305 302 300 302 305 305 305 306 308 307 306 304 301 301 301 305 308 308 304 299 300 302 303 305 300 302 311 304 304 304 303 309 305 304 307 309 317 304 308 306 309 312 314 315 316 316 317 317 318 316 314 314 315 315 315 315 315 315 316 316 314
307 306 307 307 307 307 307 307 307 307 307 307 306 301 299 300 302 301 298 299 295 292 294 291 296 300 301 299 302 304 304 305 305 304 303 306 305 303 302 303 300 300 302 301 303 302 302 301 301 302 304 306 312 308 310 307 307 304 304 310 312 308 305 309 309 304 304 304 308 313 306 305 311 317 319 318 317 316 315 315 315 314 314 314 314 315 317
306 307 307 307 307 307 307 307 307 307 307 307 306 302 301 300 300 302 303 302 298 292 292 293 292 296 302 298 303 304 305 308 306 304 298 299 302 302 300 299 300 298 299 299 295 298 298 296 297 303 306 309 306 305 310 313 310 304 302 304 309 306 309 307 305 303 303 308 313 312 311 310 312 315 318 319 317 314 313 313 314 315 316 316 314 312 311
306 306 306 307 306 307 307 307 307 307 307 306 301 300 300 301 302 304 305 306 304 299 297 296 298 294 289 294 303 301 303 305 304 301 297 297 300 300 300 299 298 297 298 298 297 298 297 297 301 300 300 303 305 304 302 298 300 296 303 308 307 312 312 313 312 311 312 315 314 312 309 308 308 310 312 313 314 311 311 312 312 313 313 312 310 310 309
307 306 306 307 307 307 306 306 307 307 307 300 297 297 296 300 303 303 306 307 304 302 293 290 287 291 299 300 299 301 303 305 303 300 297 296 297 299 300 298 298 304 301 297 298 294 296 297 299 301 305 311 304 303 301 302 300 303 311 308 307 310 307 307 311 312 310 309 309 309 308 308 308 309 309 310 313 312 311 312 310 309 310 310 308 309 309
306 306 306 306 307 306 306 306 307 307 304 298 297 293 293 291 300 308 307 305 303 299 295 294 290 296 296 302 301 300 303 306 301 296 297 297 297 299 301 302 304 306 298 299 297 294 297 294 296 298 301 305 305 298 296 299 295 298 307 309 305 305 305 305 307 307 308 308 309 309 308 309 310 308 307 308 309 309 309 309 315 321 314 310 308 308 309
307 307 307 307 306 307 307 307 307 307 301 297 293 293 296 300 303 305 306 306 303 299 295 291 290 291 293 297 303 308 307 307 305 302 302 304 298 300 302 301 300 303 303 297 299 296 296 298 297 299 298 303 305 296 297 297 295 297 304 308 308 306 306 307 307 307 308 311 310 308 306 306 309 305 303 306 308 308 308 307 308 308 315 311 310 310 309
307 306 306 306 307 307 307 307 307 306 300 302 305 306 306 306 306 306 307 304 300 295 297 293 289 292 290 293 301 304 307 302 300 298 297 303 300 301 299 305 302 299 319 302 293 292 296 299 299 294 297 304 299 298 295 294 297 303 305 309 306 307 307 307 307 307 307 307 307 302 301 303 304 306 307 307 307 307 307 306 307 308 308 309 309 309 310
307 307 307 307 307 307 307 307 308 307 305 301 296 297 302 306 305 306 306 302 297 297 297 291 289 289 290 299 296 300 304 295 295 297 293 303 306 299 299 300 303 297 298 297 296 296 295 303 297 295 297 297 300 297 293 299 303 304 305 306 306 307 306 306 306 306 306 307 307 307 306 306 307 308 308 308 307 308 309 308 308 308 307 308 308 308 309
307 307 307 307 307 307 307 307 303 302 297 297 297 300 303 307 307 309 305 300 290 291 291 292 292 287 288 292 294 296 304 295 295 295 294 297 309 298 301 297 296 294 296 301 297 295 294 297 298 296 292 296 295 291 296 301 303 304 307 308 306 305 305 304 303 305 306 307 307 307 308 308 307 305 306 306 307 307 308 307 307 307 307 307 308 309 309
306 307 307 307 307 307 304 304 302 299 295 295 297 306 311 313 311 305 303 301 297 292 292 293 294 289 290 288 289 296 303 295 297 299 296 301 300 305 303 297 292 294 304 296 291 295 294 302 297 293 295 296 294 296 300 304 302 303 303 303 304 303 302 303 304 304 305 306 306 306 306 306 305 305 305 306 306 307 307 308 307 307 307 308 309 309 310
306 307 307 307 303 300 296 296 302 300 297 301 305 310 311 311 308 305 301 299 302 302 293 291 288 289 292 292 295 298 299 291 297 295 296 297 296 301 299 298 292 300 296 296 297 295 299 307 300 296 295 293 297 302 304 304 303 302 303 303 304 304 304 305 306 303 303 304 304 303 303 303 303 304 304 305 305 306 307 307 306 307 307 308 310 311 310
306 306 300 298 295 292 292 295 298 303 310 310 311 304 298 301 292 295 298 293 297 301 294 294 289 289 294 292 289 298 298 293 297 294 296 300 297 297 299 298 297 298 291 295 298 302 302 300 297 297 298 302 304 306 306 305 306 306 305 305 305 305 305 304 305 304 302 301 302 301 303 303 302 302 303 304 304 305 305 306 307 309 310 312 312 313 311
304 300 298 297 294 291 293 298 306 310 307 307 304 297 292 297 294 292 292 293 297 292 296 293 291 292 293 292 294 300 297 295 293 296 294 301 297 292 297 292 297 297 287 291 298 305 297 295 296 297 297 301 303 305 308 309 309 309 310 309 309 308 308 307 307 305 304 302 302 303 303 303 303 304 304 305 306 307 307 308 309 310 311 311 313 313 312
295 294 295 294 293 295 305 306 308 305 303 295 295 292 289 294 288 283 292 288 288 294 295 290 298 293 293 292 293 292 302 298 292 293 295 297 302 295 299 298 298 294 287 290 296 304 296 292 293 294 295 300 301 306 307 308 308 308 309 309 310 309 309 309 309 309 308 308 308 307 307 309 308 306 306 307 307 307 308 309 309 310 311 312 317 313 311
296 297 297 295 298 299 301 303 303 300 296 289 287 290 288 283 288 290 292 288 286 290 298 297 299 293 297 297 296 293 299 306 302 302 298 296 304 301 295 294 299 291 290 291 299 300 297 295 297 296 298 301 303 306 307 308 308 309 309 309 310 309 309 308 309 309 309 308 308 308 308 309 308 308 309 310 309 308 308 310 310 309 311 311 311 312 313
299 298 299 300 301 301 300 299 298 293 290 292 285 280 282 284 288 289 290 285 285 291 295 297 294 293 293 296 295 296 297 302 301 302 297 293 299 295 294 296 296 292 287 294 301 295 296 294 295 296 301 304 307 308 307 307 309 308 308 308 309 309 308 308 308 309 310 309 308 309 309 308 308 308 308 309 309 308 309 310 311 311 312 311 313 314 315
305 304 303 298 297 295 297 286 290 290 281 280 278 278 282 279 283 285 288 292 297 294 294 301 298 299 300 304 299 300 298 302 299 297 295 292 297 298 294 289 292 288 294 299 297 294 293 294 294 298 303 304 307 307 307 307 307 307 308 308 307 308 308 308 308 308 310 310 309 309 309 310 310 310 312 311 310 310 310 312 312 311 311 312 312 313 314
304 301 294 295 289 290 293 281 292 289 283 281 278 277 280 280 283 286 287 288 292 293 295 292 295 298 293 299 298 296 297 298 301 297 295 298 295 293 291 287 291 296 298 295 294 291 295 297 299 301 304 306 308 307 307 307 306 306 306 308 308 309 309 309 309 309 309 310 310 311 311 311 310 312 312 311 313 310 310 311 313 315 313 313 312 312 313
294 289 287 285 284 287 286 280 286 283 280 281 285 282 285 282 283 285 286 293 296 294 298 298 298 300 299 301 299 298 298 295 299 295 292 294 289 291 290 289 294 293 291 291 294 295 296 295 300 302 304 305 306 307 307 306 305 305 305 306 307 308 308 308 308 308 309 309 309 311 310 311 311 310 311 311 312 313 312 311 312 313 312 311 310 311 312
291 288 287 283 282 284 284 282 283 282 286 289 287 286 285 286 289 292 296 298 297 296 297 299 300 301 296 300 295 293 297 296 292 293 294 292 289 288 294 298 295 290 290 290 291 289 291 298 300 301 304 305 305 306 305 305 306 306 306 306 307 307 307 307 307 308 309 309 309 309 310 310 310 310 310 310 310 311 312 312 311 311 311 310 311 311 311
289 293 287 285 281 284 290 284 285 288 290 288 289 290 290 291 296 297 298 300 298 299 299 300 300 298 296 295 295 293 295 296 292 294 293 288 289 291 295 291 287 288 287 287 287 291 294 299 301 303 304 305 305 305 305 305 306 306 306 305 306 306 306 307 307 308 309 309 308 309 309 310 310 310 311 310 310 310 311 311 311 311 311 311 311 311 311
287 291 289 282 281 284 284 287 293 294 294 293 292 294 296 298 297 296 298 302 300 300 298 299 296 295 294 297 296 292 293 293 291 289 295 293 292 289 284 290 289 291 292 290 291 294 295 299 301 302 304 305 304 304 305 305 306 306 306 305 305 305 306 306 306 307 308 308 308 308 308 309 310 310 310 310 310 310 311 310 310 310 310 310 311 310 312
292 286 285 284 287 287 287 291 290 287 291 294 295 296 296 295 296 297 299 299 299 297 298 296 298 296 291 294 292 291 287 291 287 286 291 287 285 283 284 285 290 290 295 296 294 296 298 300 303 304 304 305 304 304 304 305 307 306 307 306 305 305 306 306 306 307 308 308 307 307 308 309 308 307 308 308 308 309 310 310 309 309 308 309 309 310 312
286 285 290 286 286 287 291 293 290 287 291 292 292 292 294 295 296 297 300 298 298 298 297 297 297 292 290 291 284 285 287 288 289 285 284 284 286 287 288 288 290 291 293 296 297 300 302 302 302 302 302 303 307 304 304 305 309 309 306 306 306 306 307 307 307 307 307 306 307 308 309 307 306 306 307 308 309 309 309 309 311 310 308 309 309 311 311
289 286 287 293 289 287 289 285 285 286 289 290 291 292 293 294 294 296 300 299 297 294 293 291 289 286 284 283 281 281 284 290 287 286 285 287 290 288 287 289 292 294 296 299 299 300 301 302 301 302 303 303 304 303 304 305 306 305 305 305 305 305 306 306 307 307 307 307 306 315 309 306 306 306 308 308 308 308 307 308 309 308 309 309 309 310 310
284 283 285 289 294 293 293 292 290 289 289 291 291 293 294 294 297 298 302 298 296 294 292 293 289 284 282 283 285 288 289 288 286 289 288 291 293 289 290 291 295 299 300 299 300 301 303 302 303 308 303 305 308 305 304 306 306 304 304 305 305 305 306 306 306 306 306 307 305 305 306 306 307 307 309 308 305 304 304 305 308 308 309 309 309 310 309
Wind_Speed
17 18 18 18 18 17 17 19 19 20 22 13 11 6 4 2 6 6 7 6 2 3 2 3 1 3 4 3 4 2 3 2 2 2 1 3 3 2 4 5 5 8 8 5 5 6 6 6 7 6 7 12 14 11 13 15 11 12 8 11 8 5 4 6 8 6 5 9 5 6 4 5 3 7 3 6 7 7 8 7 7 8 1 0 1 1 4
16 16 17 17 16 15 17 18 18 18 18 11 10 4 3 4 6 8 3 2 3 2 4 3 4 3 5 4 6 3 3 2 2 4 4 4 2 5 4 4 11 7 3 4 8 1 3 4 4 7 6 8 11 17 16 18 12 11 7 10 7 5 2 8 6 4 6 8 7 6 4 3 3 5 6 7 6 8 4 6 2 3 6 8 8 6 3
15 14 14 14 15 15 16 17 17 18 18 13 7 5 5 6 5 6 8 3 3 3 2 3 3 2 2 2 3 3 3 5 10 10 8 6 7 4 5 7 5 5 1 7 8 8 5 4 7 6 3 7 8 9 18 19 14 14 11 15 12 10 6 7 9 11 11 10 11 9 9 6 3 3 5 6 10 9 5 5 2 5 2 5 4 3 8
15 14 14 14 14 14 15 16 17 18 18 17 6 3 3 3 4 5 3 4 4 1 2 5 3 1 3 3 5 3 4 3 5 7 9 11 8 9 7 5 4 7 3 5 8 9 7 5 4 5 4 3 3 5 10 12 9 7 4 6 11 4 4 9 11 12 12 11 7 6 3 2 3 4 8 8 7 12 9 6 6 10 4 6 7 8 5
16 16 14 13 13 13 14 16 17 18 19 17 5 2 3 3 1 3 5 6 1 1 2 4 5 2 4 1 2 2 3 3 4 7 3 5 7 4 7 6 6 6 9 9 9 8 9 4 9 6 10 3 3 11 5 8 5 13 7 9 2 3 4 8 12 15 16 14 11 9 7 5 6 8 7 8 10 8 10 9 9 7 11 6 5 4 9
15 16 16 15 13 12 14 15 16 18 20 20 1 2 2 1 2 2 0 1 4 7 4 8 8 4 2 4 2 4 4 2 2 3 4 6 6 5 1 8 13 14 12 7 6 2 0 3 5 9 4 5 6 8 8 2 6 4 2 14 7 3 4 6 8 14 16 17 15 14 5 5 6 8 10 12 11 10 13 12 9 13 10 12 6 7 10
15 15 16 15 13 12 13 14 14 17 20 16 2 3 4 2 3 1 6 0 3 2 9 11 8 10 4 3 4 3 2 4 3 2 6 6 2 3 3 3 6 9 13 7 4 5 3 5 3 3 3 2 4 4 4 4 6 8 5 1 1 6 7 5 9 11 12 12 14 14 14 11 7 6 9 11 12 15 15 11 7 16 9 11 11 13 15
15 15 15 15 12 11 12 13 13 15 18 10 2 4 2 4 3 4 4 4 7 7 3 4 6 7 6 2 4 2 1 4 7 6 3 4 6 2 0 7 10 9 6 9 9 10 12 12 10 2 1 9 0 3 5 4 5 5 2 0 2 2 5 9 6 7 11 12 13 13 12 12 13 13 12 9 7 9 10 5 3 1 2 2 6 15 12
14 15 15 14 12 11 10 11 11 12 13 5 5 3 4 3 3 4 5 6 5 3 2 3 4 3 4 1 3 6 2 3 7 10 8 10 7 3 4 8 8 6 5 3 4 2 1 4 8 7 3 5 2 0 5 1 6 5 3 0 1 1 4 1 4 7 7 8 12 15 10 9 13 14 13 7 8 9 5 5 6 7 6 4 3 6 9
14 14 14 14 12 11 10 9 9 9 8 2 3 3 4 5 3 4 3 3 3 4 3 4 2 4 1 4 5 5 9 10 11 7 4 2 2 6 6 6 0 3 3 1 1 4 4 8 7 6 8 7 7 6 7 6 4 1 1 2 0 3 1 1 3 6 7 8 9 13 6 3 7 12 10 8 5 3 3 1 6 5 11 8 7 9 12
15 14 13 13 12 12 11 9 8 7 4 4 5 5 6 6 5 5 2 3 4 2 4 4 0 3 6 7 10 8 10 11 9 3 3 4 4 8 7 6 3 3 3 3 7 10 14 10 8 2 5 8 9 7 7 8 6 5 2 2 1 1 2 2 3 6 6 8 5 5 6 8 7 4 4 8 8 10 8 2 1 1 3 6 8 7 6
14 14 13 13 12 11 10 10 6 5 3 0 0 4 4 5 5 3 3 2 5 3 2 5 4 6 8 12 8 10 12 12 12 8 7 5 7 6 6 4 4 4 5 6 9 11 13 9 4 1 4 5 5 9 9 8 7 4 5 2 2 3 1 1 1 3 7 4 7 6 10 6 3 4 3 3 8 13 14 8 4 5 4 1 3 3 9
14 14 14 13 13 11 11 9 8 5 2 0 1 4 3 4 4 3 4 4 5 3 5 5 3 9 11 11 11 9 10 13 12 11 10 8 4 3 2 3 3 6 10 14 13 7 2 1 1 2 5 5 5 5 8 7 8 8 1 2 1 4 4 1 1 1 2 3 6 7 3 3 3 4 2 2 5 5 13 9 8 7 5 2 2 0 1
14 14 14 13 12 11 12 10 9 4 4 1 1 3 3 3 3 3 3 3 6 3 3 9 10 6 6 8 8 12 12 9 8 7 3 2 5 3 4 3 5 10 12 8 4 1 1 2 1 2 1 6 2 4 3 5 4 4 5 6 1 4 0 3 0 1 4 4 4 2 1 2 4 2 2 5 1 1 9 5 4 4 6 5 3 4 4
15 14 13 13 12 11 10 10 10 7 4 2 1 3 4 4 5 4 3 3 6 7 3 5 1 4 8 9 7 9 7 7 9 4 4 4 3 2 5 8 10 11 11 2 2 2 1 2 0 2 0 2 5 4 2 2 3 0 2 4 2 2 4 4 2 2 4 6 5 2 2 3 3 3 8 3 3 3 2 10 1 4 7 5 2 8 6
15 14 13 12 12 12 11 11 10 6 4 2 1 3 5 5 5 5 4 3 4 7 5 7 3 7 8 8 8 8 5 7 6 6 5 2 3 10 4 6 10 9 5 3 1 1 1 2 2 3 3 3 4 1 1 2 3 5 2 4 7 5 2 3 2 1 2 5 7 3 4 2 2 10 9 10 8 6 6 7 1 1 3 4 1 7 8
14 14 13 13 12 11 11 11 10 6 5 2 2 3 4 2 2 3 3 4 4 9 5 6 8 8 6 7 3 2 2 4 6 5 6 7 7 7 12 11 8 5 8 3 5 2 1 1 2 2 2 2 1 2 1 2 1 5 10 6 9 9 6 6 2 3 0 4 5 3 1 1 3 8 10 11 12 5 5 8 4 4 7 4 3 5 8
14 14 13 13 13 11 10 9 10 8 5 4 1 2 4 3 4 4 4 4 4 7 9 7 2 1 2 2 5 5 3 3 4 3 3 4 3 6 9 8 9 6 4 4 4 3 2 0 0 2 2 3 3 4 4 5 3 3 1 2 3 5 4 7 1 1 1 6 1 1 1 3 2 6 10 12 5 4 7 8 3 3 5 4 5 7 4
14 14 14 12 11 10 11 10 9 10 7 3 0 2 4 3 3 4 5 4 4 7 3 5 4 7 8 6 8 6 4 4 4 3 6 4 1 4 12 7 5 5 7 3 2 2 2 2 1 0 1 3 2 3 3 4 4 0 3 4 4 3 3 4 1 4 2 1 6 1 3 2 4 10 11 8 2 4 7 2 1 4 5 4 10 10 6
14 13 13 12 11 11 12 11 9 9 8 5 2 3 5 5 5 5 3 4 3 9 12 10 7 12 6 6 5 5 5 4 2 2 2 4 3 8 3 2 4 1 5 4 4 2 2 3 2 2 1 1 0 2 1 2 2 4 4 5 7 7 4 3 2 2 1 4 5 1 3 2 8 14 7 6 7 4 3 4 5 3 3 7 9 9 7
13 12 13 12 12 12 11 10 9 9 8 6 3 2 5 2 2 2 3 5 5 8 10 5 5 11 7 8 9 9 7 9 6 4 5 4 6 3 2 1 3 1 1 1 2 2 2 3 5 2 2 2 3 1 0 1 1 2 3 3 3 4 5 0 2 2 1 1 2 2 1 6 11 2 5 3 1 3 3 3 6 7 6 8 9 9 5
13 13 12 12 12 12 11 9 9 9 8 7 3 1 5 2 2 3 4 4 6 8 7 9 7 11 15 15 15 13 15 16 17 10 8 7 3 3 4 2 1 1 1 1 3 2 4 2 2 2 3 4 3 2 1 1 1 2 2 3 4 6 6 7 5 2 0 1 3 1 2 4 6 7 8 7 8 12 9 10 8 9 8 4 9 8 8
12 12 12 12 10 10 11 8 7 10 8 7 3 3 5 4 3 3 5 5 5 6 7 10 11 12 12 15 16 16 15 14 15 10 9 6 6 3 5 2 2 1 0 1 5 5 2 2 3 2 3 1 1 2 1 2 2 2 0 1 1 0 3 4 10 2 3 6 3 1 3 3 6 6 4 9 9 4 6 10 12 7 7 7 9 6 8
12 11 10 11 11 10 9 8 7 8 8 8 4 2 3 3 3 4 3 5 4 7 8 6 1 6 4 6 5 3 7 10 12 14 9 9 6 5 3 3 2 1 1 1 1 4 2 1 4 1 2 2 2 3 2 4 3 2 1 1 3 1 1 0 8 7 5 3 2 3 3 1 4 4 4 5 6 4 4 10 9 8 9 11 10 11 10
10 10 11 11 10 10 8 7 7 10 9 8 6 4 1 1 1 1 3 3 2 2 6 7 7 13 11 8 9 10 7 4 1 6 8 10 11 7 5 1 1 0 2 4 1 4 3 1 2 1 3 3 1 1 1 2 6 2 3 3 1 2 1 5 5 7 6 8 8 2 2 3 3 4 3 6 6 6 5 6 5 8 9 10 9 11 11
11 10 10 10 9 9 8 7 7 8 9 8 7 2 2 4 2 1 2 5 5 4 5 6 8 7 4 11 10 6 8 10 8 6 9 13 14 14 11 3 3 2 1 2 5 5 2 1 1 1 2 5 2 0 1 1 5 4 1 3 1 5 5 3 4 4 4 9 5 3 1 3 3 3 5 3 3 4 4 4 6 7 9 8 8 9 9
8 10 10 9 8 8 8 7 7 8 8 8 5 3 3 4 5 6 6 4 3 4 4 7 7 10 5 13 16 10 7 4 5 5 6 9 10 7 4 2 3 3 1 1 1 3 2 2 3 3 4 4 2 3 2 5 5 6 2 2 3 6 1 1 5 9 10 10 9 11 9 4 1 1 1 1 1 4 4 5 9 9 9 7 9 8 7
9 10 8 10 9 8 6 6 7 6 7 8 4 5 5 6 6 8 8 6 4 4 5 7 7 11 13 13 7 5 9 7 5 5 5 6 7 5 5 5 2 1 1 1 2 1 1 2 5 3 2 2 3 4 0 2 2 5 4 5 2 0 3 1 4 9 7 2 8 3 7 9 3 4 4 3 1 3 7 7 6 4 4 4 6 9 11
9 6 7 9 8 7 6 6 6 7 6 3 4 6 7 8 6 7 7 6 5 4 6 7 8 5 4 7 10 11 8 4 4 5 5 5 4 4 5 5 5 4 1 2 2 1 1 4 2 3 3 5 4 3 4 3 2 3 8 11 2 6 6 6 5 3 7 6 7 4 6 10 5 5 4 3 1 4 10 7 6 6 4 6 9 7 9
8 8 9 8 7 6 6 6 6 7 2 3 3 1 2 1 2 6 6 4 2 2 2 3 6 5 4 5 7 5 6 6 3 4 5 5 4 3 4 4 4 3 1 1 3 1 3 2 3 3 3 1 3 4 6 2 2 1 8 11 3 0 6 7 4 6 6 2 8 9 13 11 8 9 8 8 6 9 10 9 8 8 7 8 10 9 8
7 6 7 6 5 6 6 6 6 4 4 2 1 2 1 3 1 4 7 3 1 0 2 2 7 7 8 4 4 9 9 5 4 4 5 5 4 4 3 3 1 3 1 1 1 3 1 2 1 3 2 2 1 1 5 7 6 3 3 11 5 9 11 11 8 8 12 11 11 11 12 7 2 11 15 12 10 9 9 7 7 8 8 9 9 8 8
7 7 6 6 6 6 6 6 7 5 2 2 3 3 1 1 1 2 4 4 4 1 2 4 5 2 3 5 3 3 4 5 2 1 1 2 3 3 1 3 2 2 3 3 2 1 3 3 2 3 3 1 2 2 4 5 8 5 3 1 2 8 10 11 10 8 6 3 15 16 14 12 12 10 4 4 7 8 8 6 5 5 7 6 6 8 8
6 6 6 6 6 7 8 8 7 5 3 6 10 14 17 20 19 16 8 3 1 2 1 1 4 3 3 5 6 5 4 1 1 2 2 1 2 1 1 1 2 0 2 1 1 2 2 2 1 2 4 0 1 2 4 4 3 1 2 4 7 11 11 11 11 11 13 12 10 12 7 6 4 4 4 7 9 9 8 8 5 8 11 12 12 10 9
5 5 6 6 7 7 8 8 7 6 5 3 5 5 5 10 10 13 5 3 1 1 0 1 3 3 6 5 4 3 1 3 2 4 2 2 2 2 2 1 1 2 1 4 3 1 2 1 2 3 2 3 3 5 4 2 3 3 4 5 5 11 10 12 11 12 11 10 9 9 7 5 3 7 12 12 11 9 9 10 11 12 10 11 10 8 6
4 5 6 7 8 9 9 9 3 1 3 3 5 6 4 7 7 5 9 4 2 0 0 2 1 3 5 4 2 5 2 1 1 3 3 2 2 4 1 2 1 0 3 1 0 1 1 2 2 2 3 4 6 3 1 1 2 3 6 6 3 5 10 12 8 7 7 7 8 7 6 9 14 10 8 8 9 8 10 9 8 9 10 8 8 8 8
4 5 7 8 9 8 3 3 3 3 2 3 5 6 7 5 3 3 4 1 1 0 1 2 1 3 2 3 4 4 3 3 1 1 3 1 1 0 2 3 1 5 1 2 2 1 1 2 3 5 5 7 4 2 4 4 3 4 5 5 5 5 6 10 8 7 8 10 11 10 11 10 10 6 5 5 6 6 6 7 8 7 7 7 7 6 7
5 6 8 8 3 0 2 2 2 3 4 5 7 10 12 7 2 3 1 1 1 1 2 1 2 4 2 4 2 5 3 2 2 1 1 1 3 1 1 1 2 1 2 1 1 5 3 3 7 7 7 4 4 6 7 6 4 5 6 5 4 5 5 4 3 7 12 11 11 10 8 8 7 7 7 7 6 5 7 7 5 5 6 5 5 6 5
5 6 2 1 1 1 1 1 2 3 8 12 11 3 2 2 0 0 0 0 2 2 1 1 4 4 2 1 5 5 1 4 1 1 0 0 1 1 1 1 2 1 2 1 1 3 3 5 5 7 6 5 5 9 7 6 5 5 5 5 6 6 6 4 3 7 9 8 9 6 5 6 6 5 6 6 6 7 5 3 3 2 3 3 2 1 3
2 1 1 1 0 1 2 2 3 11 8 3 0 0 1 0 1 1 2 1 0 2 2 4 4 3 2 3 7 4 3 2 4 2 2 1 2 1 1 1 1 1 0 3 4 3 4 2 3 4 7 5 8 8 7 6 6 6 6 7 7 6 5 7 8 10 9 7 4 4 5 6 5 5 4 5 5 4 4 4 5 5 4 3 4 4 4
2 2 1 1 1 4 4 4 8 5 1 0 0 1 0 0 2 2 1 1 1 2 3 3 3 5 8 8 2 6 2 1 2 3 0 2 0 0 1 0 1 2 3 3 2 2 5 4 3 3 4 5 4 4 4 4 6 7 8 8 8 9 9 10 9 7 7 6 6 7 6 5 5 4 4 3 4 4 5 5 4 4 5 5 4 5 5
2 2 1 2 3 3 4 5 4 0 0 1 1 0 0 1 2 2 1 2 2 2 3 3 1 3 4 4 3 6 6 0 0 1 1 1 1 1 2 1 1 3 3 3 1 2 3 4 3 4 3 3 2 3 4 6 9 9 10 10 10 9 9 8 8 8 8 8 7 7 6 4 4 4 2 1 2 2 2 3 3 3 3 4 5 5 5
1 1 2 4 4 4 4 1 0 1 1 0 1 1 1 2 1 1 1 1 2 1 1 1 3 2 4 7 6 5 5 0 0 0 1 1 2 1 0 1 2 2 3 2 1 3 2 5 3 3 3 4 5 7 8 9 9 9 9 9 8 7 6 6 7 7 7 6 5 5 5 5 5 4 3 2 2 3 3 3 3 3 3 3 3 3 4
9 7 2 1 2 1 0 1 1 1 0 1 2 1 1 0 1 1 1 1 1 1 1 4 4 2 4 1 1 2 2 0 0 2 3 1 2 2 2 2 2 4 2 3 3 1 4 3 4 4 0 2 4 5 5 5 4 4 4 4 4 4 4 5 6 5 5 6 5 5 5 6 6 5 3 3 3 3 2 2 2 3 3 3 3 4 4
2 1 1 1 1 2 1 1 1 0 1 0 1 1 3 3 5 4 3 3 3 1 1 3 3 1 3 1 0 2 2 2 2 1 3 1 1 1 2 2 1 2 2 3 2 4 3 3 3 3 1 2 3 3 3 3 2 2 3 4 4 5 7 8 8 8 9 7 7 6 5 6 5 6 6 5 4 4 4 4 4 4 3 4 4 4 5
3 3 2 1 1 2 1 2 1 2 1 2 1 0 0 2 4 2 2 3 2 6 6 3 3 2 0 3 1 0 1 1 2 3 0 0 2 1 2 0 0 3 2 2 3 2 3 4 1 1 1 2 2 2 2 2 2 1 1 2 6 7 8 8 7 6 6 6 6 5 5 5 5 4 4 4 3 2 3 3 3 4 4 3 3 4 5
1 1 1 2 3 3 1 0 1 3 1 0 1 2 1 3 3 5 5 2 5 6 6 3 1 1 2 1 2 1 2 1 2 1 0 1 2 2 0 0 3 4 2 2 3 4 2 2 2 1 0 2 2 2 2 2 2 2 4 7 6 6 6 5 5 5 5 5 5 5 5 4 4 5 5 4 3 4 3 3 3 3 3 3 4 3 4
1 1 1 0 1 1 0 1 3 1 2 4 5 4 4 4 5 5 5 1 4 7 6 4 0 1 3 3 3 3 2 1 1 2 2 2 1 1 1 3 3 2 2 3 2 2 1 1 1 1 0 1 1 2 2 3 3 4 4 4 4 4 3 4 4 5 4 4 5 6 5 5 5 4 4 5 5 5 4 4 3 3 3 3 3 3 4
1 1 0 2 1 1 3 3 2 5 4 3 4 2 2 2 1 5 4 3 6 5 4 4 3 4 3 2 2 0 1 1 2 2 1 0 1 3 3 3 2 1 1 3 2 2 3 2 1 1 0 0 1 3 3 3 3 4 4 4 4 4 4 4 4 4 3 3 4 4 4 4 5 5 5 5 5 5 5 4 3 3 3 3 4 4 4
1 1 1 1 1 0 2 3 2 3 5 4 3 4 6 6 5 5 6 4 4 5 3 1 1 1 1 2 2 2 3 2 3 1 2 4 3 1 1 2 2 3 2 1 2 1 1 1 0 0 1 2 1 1 2 2 1 2 3 3 3 3 3 3 3 2 2 2 1 2 3 3 3 3 4 4 4 6 5 4 4 3 3 3 3 4 4
1 2 1 2 3 2 4 4 4 4 8 8 7 6 6 5 6 6 4 6 5 3 3 1 2 4 1 1 2 2 1 2 1 1 4 3 2 2 3 4 1 2 2 1 1 0 0 0 0 2 2 1 1 1 1 2 3 3 3 3 3 3 4 4 4 4 3 3 2 2 2 2 4 4 4 4 4 4 4 4 4 4 4 3 2 3 3
1 2 2 2 2 2 3 5 5 4 7 7 7 5 4 5 4 6 5 4 4 5 6 3 1 2 2 3 2 2 1 1 4 3 2 1 1 2 2 3 1 0 0 0 1 1 1 0 2 2 1 2 1 1 1 2 3 3 3 3 3 3 4 3 4 4 4 3 3 3 2 2 3 3 4 2 2 2 3 4 3 3 3 4 3 3 4
2 3 3 3 1 1 2 2 1 1 4 5 4 4 2 5 6 6 5 3 5 7 3 3 2 2 2 2 0 1 1 3 2 2 4 2 2 2 1 2 2 0 0 1 1 1 1 1 1 0 0 0 1 2 3 2 3 3 3 4 4 4 4 4 4 4 4 4 3 3 3 3 2 2 1 1 2 3 3 5 4 3 3 4 4 3 3
Wind_Direction
326 329 331 333 330 330 333 337 338 341 344 351 349 328 338 347 239 266 275 286 215 183 276 276 241 227 233 259 269 251 293 227 288 324 1 320 200 254 217 222 239 235 238 253 246 227 258 270 262 252 252 251 227 227 210 212 209 171 192 190 201 137 149 175 244 276 285 277 263 271 207 175 261 290 292 149 177 173 167 170 184 170 220 107 29 216 252
325 330 330 328 326 331 336 336 338 340 354 347 331 336 308 267 279 308 285 293 240 175 225 259 249 270 281 274 271 239 248 245 266 224 217 200 226 217 239 228 208 252 221 267 263 265 309 220 258 288 255 258 248 230 220 202 203 181 183 186 179 191 248 148 207 242 270 292 310 304 350 152 180 198 221 209 191 178 150 105 116 157 216 170 150 224 280
323 326 326 325 327 333 338 336 335 339 342 348 332 317 306 284 247 232 291 287 170 181 230 249 281 263 343 325 303 295 250 215 230 238 243 220 234 257 250 242 257 247 248 278 290 286 246 297 294 262 275 299 286 261 228 207 204 203 188 183 158 185 183 158 194 206 215 222 220 221 249 225 230 208 199 212 186 163 126 196 161 210 263 130 157 236 250
319 322 323 325 329 335 336 335 334 336 338 343 327 300 299 336 340 298 306 359 344 327 5 58 357 350 348 333 267 229 248 259 247 232 249 237 240 227 254 263 251 246 233 268 280 282 277 264 308 318 299 295 306 338 315 215 220 273 225 179 152 179 186 173 194 202 214 220 211 236 127 84 180 226 192 207 209 187 177 122 141 198 202 177 222 182 197
318 318 320 323 328 334 334 335 335 335 335 342 320 256 203 312 211 329 330 325 25 2 22 31 34 336 311 264 258 265 255 264 281 218 272 214 212 231 217 232 233 235 217 230 248 249 292 336 317 295 291 278 265 306 327 348 284 213 203 151 146 69 183 205 194 207 216 208 212 218 163 201 218 206 224 204 193 190 166 171 209 165 113 227 262 223 158
314 315 318 323 332 335 334 335 336 336 335 341 270 274 201 19 270 61 321 268 282 355 323 6 325 267 263 247 266 262 276 295 288 298 249 270 237 238 259 216 227 234 217 170 198 160 300 324 302 288 269 328 325 337 343 359 308 324 229 158 173 146 192 235 183 219 220 220 220 233 210 200 208 219 212 204 195 172 191 202 185 144 183 201 230 191 183
311 314 317 322 328 332 333 335 337 341 338 338 140 356 277 271 317 341 2 277 290 259 284 308 288 299 283 252 259 252 276 305 294 302 308 303 277 179 259 276 293 286 231 183 183 162 164 258 289 233 283 302 318 335 323 272 335 6 355 19 19 165 235 199 192 216 228 223 223 233 226 235 235 224 227 223 194 189 193 198 169 177 187 190 177 178 200
307 312 316 319 325 326 331 334 338 344 343 337 47 30 351 6 347 329 352 290 286 281 278 270 310 301 293 280 258 305 303 307 328 334 317 315 294 295 221 303 304 304 285 180 178 190 179 185 235 263 296 319 249 276 212 273 316 5 333 253 8 131 269 182 179 212 234 227 224 231 223 225 242 244 237 215 205 213 205 164 119 302 354 358 174 173 214
306 308 312 316 322 322 327 338 337 349 355 16 26 336 48 302 289 298 319 310 262 254 277 316 306 305 288 210 314 335 326 314 338 297 256 243 260 311 299 279 301 320 334 152 132 122 264 183 196 234 216 238 243 232 294 260 312 339 330 49 322 121 258 330 128 187 250 231 221 228 226 228 234 246 248 217 172 190 200 179 193 155 199 119 73 200 215
303 306 309 314 319 317 324 336 339 350 8 40 333 335 343 317 282 304 276 268 294 330 301 290 292 262 248 1 342 340 306 305 315 312 297 347 331 335 295 287 94 298 306 282 311 297 258 237 223 236 246 251 264 216 239 258 260 267 252 280 230 161 146 202 163 167 239 235 211 219 206 212 265 251 241 213 196 178 160 173 159 184 151 130 161 222 223
300 303 305 310 315 316 317 332 338 345 24 22 356 330 344 354 332 338 290 276 301 324 338 282 200 270 347 343 326 312 297 304 306 322 297 328 325 337 322 7 43 241 229 279 312 300 286 270 263 234 257 257 247 265 269 269 228 202 212 294 298 101 131 232 194 179 226 240 204 126 121 203 230 235 184 158 167 155 119 75 318 320 122 189 193 222 198
298 300 302 304 307 307 311 320 324 329 56 169 266 311 328 325 307 269 292 292 275 320 341 275 270 291 322 311 309 303 305 306 300 291 264 278 292 313 317 354 46 315 256 310 314 302 276 253 243 323 276 255 259 265 262 256 276 207 189 204 266 297 113 205 155 158 224 165 108 142 206 220 244 321 325 130 126 108 113 120 77 11 360 30 210 226 172
298 296 294 296 300 304 306 311 314 292 339 161 312 319 297 305 291 283 281 271 270 321 321 287 288 285 280 290 304 291 291 287 284 287 273 263 287 298 334 342 331 265 310 307 314 322 337 68 13 112 261 324 314 299 275 280 282 285 231 187 242 289 275 187 62 133 64 83 152 194 226 237 307 3 9 331 108 114 87 36 13 20 358 268 169 242 285
293 293 292 296 303 306 306 310 304 278 275 179 255 291 288 292 294 278 260 262 275 244 256 301 291 279 305 302 298 298 302 295 300 279 275 281 280 284 288 281 269 282 287 286 295 321 11 35 52 120 201 2 333 274 290 284 271 320 327 333 282 252 122 100 206 148 171 168 139 174 339 10 2 20 12 5 316 125 115 106 8 342 359 342 141 85 94
285 288 292 294 293 293 294 300 301 291 269 246 218 254 250 251 258 249 265 266 276 285 234 241 264 309 325 311 318 318 313 318 338 330 281 267 272 260 276 282 295 295 290 214 331 36 156 110 40 114 348 147 229 249 269 275 314 195 28 345 14 167 209 230 137 268 118 126 106 62 31 129 264 234 284 265 253 298 268 104 332 338 357 4 281 117 113
286 285 288 288 290 292 292 288 288 286 262 266 189 245 271 252 240 241 248 262 302 301 250 221 351 349 325 306 303 294 300 320 317 304 320 294 273 312 263 294 301 301 313 71 87 89 105 153 204 129 193 174 231 145 297 310 320 296 325 359 47 358 85 111 129 202 40 59 118 159 132 236 219 286 299 308 330 347 285 70 87 263 323 342 297 127 124
287 286 283 286 286 286 289 289 288 278 274 251 211 265 281 208 267 272 284 268 226 246 280 312 303 284 297 301 328 334 335 312 333 351 336 327 330 305 300 330 293 344 3 71 3 44 24 67 119 162 264 175 120 205 153 67 342 322 329 0 24 17 353 5 40 34 24 128 89 101 198 188 294 297 310 314 311 333 67 101 234 284 339 305 95 100 131
283 283 286 287 287 284 283 285 287 288 272 239 187 267 277 267 239 242 253 245 268 276 257 264 276 333 192 241 298 279 287 326 355 307 261 277 311 318 325 334 337 326 10 72 355 58 29 124 120 156 227 249 152 136 214 163 159 217 197 54 23 359 338 39 185 140 45 90 104 29 350 292 274 289 305 314 325 66 103 167 222 310 349 340 91 79 45
278 280 281 280 287 296 289 283 288 289 289 288 198 266 251 238 256 261 253 264 239 256 238 338 358 260 259 275 260 268 278 312 295 302 291 330 271 290 293 266 293 328 5 21 33 57 5 287 352 132 202 311 3 201 183 127 202 228 95 54 11 12 45 328 40 17 49 130 97 182 232 243 322 314 312 301 37 79 154 234 234 24 26 39 77 69 56
281 282 281 281 280 277 278 277 279 279 281 279 191 249 270 275 261 229 271 278 270 269 286 277 256 264 268 266 283 293 318 306 241 238 310 275 296 334 355 6 322 18 351 17 39 339 50 303 305 336 10 301 308 328 16 190 178 162 172 176 135 205 109 179 282 278 340 39 76 59 130 264 360 319 338 15 93 206 216 107 28 43 356 63 62 73 60
278 276 276 275 273 275 278 281 280 275 274 268 240 267 295 235 259 303 303 290 289 297 288 273 237 240 243 241 241 255 261 257 266 297 264 266 294 334 103 211 280 343 95 326 97 312 358 312 322 313 272 255 274 48 225 273 281 232 135 180 152 188 112 255 234 187 160 76 118 195 242 276 322 340 113 316 119 153 78 79 65 19 43 52 59 34 42
278 280 276 272 273 279 280 279 275 273 270 264 265 175 274 253 263 300 301 289 263 244 263 299 297 280 267 260 258 249 247 249 250 234 261 285 299 258 260 307 222 208 212 235 43 14 17 345 299 344 324 310 352 106 336 345 177 283 319 105 126 233 160 174 147 251 131 186 201 257 286 300 342 42 103 121 102 95 105 96 90 78 47 44 67 59 41
275 274 275 275 277 280 276 269 281 282 271 266 254 191 244 298 287 289 292 278 251 254 261 276 277 274 271 265 248 241 241 239 247 237 211 224 287 273 251 276 280 232 1 72 155 158 178 133 245 237 287 283 333 341 27 139 239 315 189 249 218 357 127 143 98 112 142 72 82 75 343 360 21 25 41 90 90 79 98 94 92 76 91 79 88 78 62
269 272 276 279 279 270 265 277 283 274 278 273 253 203 249 225 278 313 279 236 263 299 287 242 275 267 229 280 307 245 236 241 223 229 203 181 214 283 309 237 238 22 48 229 186 131 173 162 230 244 269 270 315 71 52 354 288 247 318 346 349 54 106 58 107 189 90 103 309 88 109 359 346 30 45 72 84 79 72 81 82 94 82 76 70 75 65
267 277 275 270 271 272 276 269 259 272 271 272 276 262 263 314 264 265 345 313 297 316 291 311 260 252 271 280 283 279 250 224 262 217 186 200 208 220 239 223 225 198 224 199 119 72 59 89 330 14 331 280 102 296 183 130 301 316 358 278 38 183 113 55 136 127 116 166 188 152 50 24 331 318 14 53 57 61 64 92 108 101 89 90 92 86 76
263 259 265 280 274 271 272 278 283 275 273 275 274 227 215 241 196 172 255 263 263 255 273 286 285 298 325 325 302 265 289 292 268 239 209 206 210 219 240 299 307 32 122 153 114 109 143 308 10 38 312 289 1 34 263 173 233 265 189 249 104 302 324 156 200 106 44 57 62 92 66 41 22 360 354 353 23 61 33 45 60 65 78 86 87 89 107
275 275 273 263 272 281 280 279 281 284 288 283 264 227 228 246 202 193 210 236 276 272 228 261 282 294 346 311 290 296 277 245 260 236 234 219 215 211 211 211 255 327 36 30 48 119 129 177 125 229 226 253 3 305 301 354 352 314 287 266 31 10 39 268 107 103 144 159 179 162 131 141 160 24 302 298 320 101 90 65 61 62 59 40 53 44 50
280 273 267 273 277 279 285 291 293 291 277 280 280 260 234 238 215 201 211 215 216 254 300 292 298 292 308 277 262 262 279 275 254 247 221 220 213 205 205 227 212 248 293 86 13 66 100 152 223 220 155 135 90 280 105 81 329 318 327 333 53 282 260 180 161 149 174 176 119 162 118 108 145 167 191 208 183 107 90 81 90 76 72 72 67 63 48
261 275 287 285 281 277 286 284 278 282 296 2 310 287 267 238 216 192 198 204 214 270 276 279 276 289 265 282 313 300 279 242 247 211 214 223 206 183 202 207 197 197 133 97 112 126 178 235 216 191 224 199 137 195 131 70 45 298 292 313 324 247 206 132 115 355 51 94 129 181 103 101 93 82 85 61 8 102 83 82 81 83 75 71 72 68 74
274 253 254 266 279 291 286 282 291 295 345 47 349 315 326 22 148 176 183 151 192 231 269 317 310 267 294 303 281 283 301 304 263 212 203 216 225 209 211 192 226 200 140 163 149 259 225 228 258 261 259 221 182 197 104 153 140 276 296 307 281 245 62 74 110 156 103 22 92 92 99 100 97 86 68 60 52 64 71 63 68 70 62 64 64 57 51
263 271 270 279 290 291 286 287 284 287 93 70 52 312 278 149 155 116 138 90 106 163 248 225 255 301 307 244 254 276 270 267 262 218 216 210 211 212 217 155 243 150 117 41 91 223 156 262 280 275 303 267 155 119 135 153 138 116 342 310 309 71 69 64 65 81 107 108 94 81 70 57 69 67 44 37 41 52 64 55 46 62 69 63 60 62 54
267 277 288 286 288 288 285 279 275 261 165 138 172 195 203 37 80 269 276 351 354 324 250 304 301 282 276 290 252 250 249 242 206 175 263 169 246 209 237 178 217 193 146 157 195 45 239 216 180 262 294 253 99 105 80 91 97 109 149 170 354 73 74 73 63 57 58 72 88 62 48 46 36 65 80 13 46 50 60 60 57 57 70 81 75 61 57
274 282 289 304 288 281 273 269 275 280 221 239 248 262 270 271 266 263 272 257 198 221 213 237 260 295 277 263 296 270 219 91 81 122 280 210 230 129 240 168 143 84 245 136 277 210 222 146 262 309 256 337 87 77 73 43 87 127 125 100 66 63 71 69 67 60 60 46 66 96 98 79 63 59 81 61 51 47 43 40 34 46 43 40 37 35 34
296 296 301 290 283 275 278 284 288 300 332 309 296 262 252 239 245 249 208 157 181 220 174 180 287 286 271 311 334 289 214 147 223 141 243 269 177 113 207 93 69 157 214 171 250 4 325 89 217 256 344 12 38 71 50 15 71 80 73 57 66 82 71 68 63 65 62 64 64 83 104 131 115 57 40 36 31 25 38 38 35 40 34 35 30 28 21
308 303 293 285 287 290 290 290 299 240 261 266 260 268 262 261 244 180 155 150 106 305 197 256 208 304 316 330 341 275 303 60 230 201 180 264 165 164 193 90 351 117 281 96 1 178 257 248 192 60 331 324 45 48 81 94 19 30 56 41 331 93 77 64 38 64 75 79 82 79 78 65 55 45 42 33 34 26 34 33 34 43 39 26 22 16 19
309 293 291 295 297 294 315 278 209 217 233 247 236 250 258 278 144 149 182 150 137 178 281 268 237 237 248 291 308 285 345 344 263 166 206 145 17 189 117 119 119 250 174 117 209 294 262 294 70 2 323 60 31 351 6 5 24 50 67 63 11 50 87 114 124 88 71 66 64 60 56 56 63 58 53 49 42 33 36 37 27 43 51 36 18 11 18
306 307 309 304 314 122 247 237 180 191 212 204 249 266 276 282 64 88 100 298 292 168 217 249 321 257 228 263 291 273 12 326 327 44 338 132 209 244 96 75 210 221 85 16 30 53 4 337 87 66 36 53 16 2 24 20 13 36 47 40 39 50 61 47 61 83 73 59 53 46 45 47 38 30 30 26 16 18 31 30 24 48 51 36 20 18 5
313 310 351 355 18 353 298 257 201 235 261 273 280 290 30 89 63 306 136 17 245 151 250 171 250 264 290 272 266 259 335 256 43 141 327 238 112 225 114 133 216 123 137 150 86 176 76 35 50 74 67 34 45 33 20 24 28 34 43 45 51 53 53 46 72 72 67 51 39 36 43 45 40 20 32 13 9 15 13 17 28 53 82 70 63 27 5
348 324 335 301 20 264 224 240 328 331 311 257 63 39 308 140 92 274 222 206 124 227 218 178 245 221 239 248 266 271 200 296 337 3 85 285 103 295 24 137 284 76 335 76 42 28 70 6 46 44 57 6 23 6 3 25 33 31 36 40 44 37 41 45 47 68 78 96 114 102 95 78 67 34 24 32 15 25 31 31 28 13 13 14 13 12 11
37 17 328 297 222 242 274 312 352 324 322 37 342 110 259 186 110 260 245 107 263 238 148 233 203 204 209 216 246 313 283 75 33 356 127 315 19 133 261 97 264 85 54 58 331 22 98 86 19 71 51 5 6 352 14 26 36 28 30 29 30 30 33 37 33 34 57 55 52 45 42 57 72 75 59 44 57 42 18 14 12 8 10 357 351 9 360
349 292 312 288 285 303 296 308 325 86 57 42 15 333 58 295 241 199 209 233 217 222 181 184 266 266 230 208 204 252 285 53 257 136 116 81 263 80 52 62 244 81 49 66 352 43 60 79 44 56 41 325 341 350 18 39 32 29 25 22 25 24 25 29 32 34 43 45 37 36 33 37 43 44 41 83 109 76 41 26 23 3 356 359 351 342 329
253 254 265 281 266 274 302 305 137 29 347 173 117 267 220 224 275 339 169 157 255 181 165 107 257 235 264 180 194 191 268 184 154 117 104 24 334 90 225 287 16 101 98 220 165 60 65 81 69 63 347 353 8 21 27 31 23 26 15 12 11 11 17 28 37 33 43 50 42 37 31 31 31 29 31 69 78 68 65 51 19 1 353 334 341 352 349
276 258 204 295 324 304 218 16 305 96 96 338 30 0 336 20 236 191 281 245 277 166 225 173 240 206 261 127 275 199 221 122 98 311 68 358 326 30 51 18 33 57 109 289 46 30 62 80 93 92 6 14 22 31 26 31 19 16 360 360 359 1 23 36 37 39 30 34 31 29 18 21 18 13 14 47 61 64 42 43 25 357 356 2 7 352 346
257 182 43 312 34 294 66 347 279 6 341 72 83 16 332 9 326 360 355 316 323 323 144 158 258 100 270 291 121 309 0 350 54 75 44 355 80 303 46 43 104 254 42 47 45 45 82 54 79 137 170 88 72 54 54 39 10 352 2 359 8 24 28 28 27 24 16 13 23 20 29 25 16 10 15 17 31 52 21 12 4 1 1 15 11 356 340
30 351 22 11 22 273 53 336 319 101 49 295 134 154 50 10 291 297 276 271 358 305 305 249 239 135 284 305 38 338 75 268 299 90 231 313 47 338 81 175 41 43 75 89 90 70 38 86 43 40 89 82 58 45 43 28 358 359 313 13 30 30 31 34 24 22 17 17 10 17 22 15 22 14 11 11 3 18 40 9 343 5 6 11 7 355 346
30 52 5 56 9 334 82 213 330 3 307 150 307 231 235 236 223 270 261 325 323 308 306 329 350 110 57 321 116 265 334 46 39 45 174 71 97 61 317 1 75 78 35 45 63 76 280 207 188 226 305 87 61 32 20 349 326 341 31 36 17 24 24 31 26 27 20 12 7 12 7 8 14 11 357 344 357 7 4 354 1 19 5 16 3 346 322
352 346 84 132 87 285 11 22 351 320 304 309 290 267 240 239 238 244 276 234 239 275 277 259 302 110 101 352 8 353 11 35 78 306 59 42 62 260 358 73 44 47 78 58 62 141 163 121 260 227 183 93 58 35 36 13 6 23 30 29 24 12 8 22 24 25 4 11 10 9 1 358 353 351 353 357 353 348 346 349 344 5 30 6 327 327 326
47 263 78 70 28 292 5 4 356 285 267 256 277 293 250 229 33 349 304 262 269 291 336 19 11 353 15 315 87 132 305 0 54 323 58 169 17 46 34 44 52 30 47 107 103 151 166 187 223 192 206 196 105 63 28 21 12 18 23 17 13 11 4 8 11 357 357 13 5 357 350 349 349 349 346 342 330 334 340 332 325 345 1 0 353 342 334
175 99 87 182 215 342 282 319 349 304 325 330 336 22 357 353 340 314 310 311 323 320 315 70 147 85 353 319 53 19 9 330 65 297 3 28 72 66 90 71 33 66 14 92 172 180 169 183 219 311 34 41 16 38 358 340 337 3 0 344 328 329 348 353 329 314 325 333 348 357 347 339 342 341 338 345 349 327 322 322 319 333 350 344 336 326 319
61 355 0 36 359 316 279 250 236 346 4 5 16 356 346 348 351 317 310 331 319 342 356 5 28 92 266 39 6 0 19 339 72 13 51 34 47 42 60 69 8 121 175 267 265 355 335 310 56 62 29 7 25 7 348 346 7 14 348 338 331 330 331 331 327 325 314 297 307 309 324 356 343 331 329 326 309 297 308 318 324 318 316 306 294 290 288
330 123 229 223 88 295 346 13 349 330 341 349 338 317 341 325 321 312 328 317 331 26 42 36 326 58 14 20 36 37 321 318 52 27 91 57 333 75 70 109 81 176 85 246 237 215 211 218 132 95 24 18 336 306 294 311 333 324 320 329 333 329 320 316 307 302 300 287 278 295 315 306 286 271 275 285 309 334 333 320 311 293 288 286 274 264 273
16 23 332 305 299 259 282 263 218 204 244 267 287 266 327 328 332 307 311 5 29 47 350 314 49 29 50 55 314 240 319 44 41 21 32 8 35 78 56 130 152 154 231 52 16 323 321 306 244 195 197 283 327 296 302 330 337 329 328 325 324 325 319 313 307 294 285 288 277 259 268 260 263 277 280 316 1 1 342 311 299 300 292 288 286 278 269